星链-5878 (STARLINK-5878 )

导读 | 星芒AI

STARLINK-5878 是 SpaceX Starlink 项目中的一颗低轨通信卫星,属于该星座的众多组网卫星之一。该卫星旨在为全球用户提供高速、低延迟的互联网服务,尤其关注网络覆盖不足的地区。它运行在约 550 公里的轨道高度,采用先进的推进和通信技术,支持 Ku 和 Ka 频段。STARLINK-5878 于 2023 年发射,是 SpaceX 扩展其全球宽带网络计划的一部分,有助于提升 Starlink 系统的稳定性和服务能力。

基本信息
目录编号:
55955
目录名称:
STARLINK-5878
国际标识:
2023-037AT
轨道中心:
EARTH
卫星名称:
星链-5878
卫星全名:
星链-5878 (STARLINK-5878 )
卫星状态:
在轨 (已飞行963 天)
发射日期:
2023-03-17 UTC
国别 :
美国 (US)
星等 :
--
轨道信息
数据来源 国际轨道数据
星历时间: 2025-11-04T01:21:03+0800
13小时前
查看轨道信息
半长轴: 6950.185km
偏心率: 0.0002569
轨道倾角: 70.001°
近地点辐角 269.540°
升交点赤经 222.100°
平近点角 90.546°
近地点: 570.264km
远地点: 573.836km
周期: 96.107分钟
每日圈数: 14.983328
详细信息
固有亮度:
5
最大亮度:
2.5
卫星平台:
Starlink v1.5
覆盖范围:
全球
运营商:
太空探索技术公司
运营商所在国:
美国
制造商(研发单位):
太空探索技术公司
制造商所在国:
美国
使用方式:
暂无
卫星简介
星链(Starlink)计划是由太空探索技术公司(SpaceX)提出的一个巨型低轨卫星互联网星座项目,计划在2019年至2024年间在太空搭建由约1.2万颗卫星组成的“星链”网络,其中1584颗将部署在地球上空550千米处的近地轨道,并从2020年开始工作。该卫星仍在工作。
2D轨道图
3D轨道图
轨道高度分析图
轨道倾角分析图
轨道综合分析图
查看轨道综合分析图